Weather History for CWBZ - October, 2012

Change the Weather History Date:

Friday, October 5, 2012

  Actual Average Record
Temperature  
Mean Temperature 64 °F -  
Max Temperature 71 °F - - ()
Min Temperature 57 °F - - ()
Degree Days  
Heating Degree Days 1    
Growing Degree Days 14 (Base 50)    
Moisture  
Dew Point 57 °F    
Average Humidity 75    
Maximum Humidity 91    
Minimum Humidity 61    
Precipitation  
Precipitation 0.00 in - - ()
Sea Level Pressure  
Sea Level Pressure 29.88 in    
Wind  
Wind Speed 6 mph ()    
Max Wind Speed 13 mph    
Max Gust Speed -    
T = Trace of Precipitation, MM = Missing Value Source: Averaged Metar Reports

Daily Weather History Graph

Daily Weather History Graph

Search for Another Location

Airport or City:

Trip Planner

Search our weather history database for the weather conditions in past years. The results will help you decide how hot, cold, wet, or windy it might be!

Date:

Astronomy

Oct. 05, 2012 Rise Set
Actual Time 7:00 AM EDT 6:29 PM EDT
Civil Twilight 6:31 AM EDT 6:58 PM EDT
Nautical Twilight 5:57 AM EDT 7:32 PM EDT
Astronomical Twilight 5:22 AM EDT 8:06 PM EDT
Moon 9:37 PM EDT (10/5) 12:19 PM EDT (10/5)
Length of Visible Light 12h 27m
Length of Day
11h 28m
Waning Gibbous, 74% of the Moon is Illuminated
Oct 5
Waning Gibbous
Oct 8
Last Quarter
Oct 15
New
Oct 21
First Quarter
Oct 29
Full

Hourly Weather History & Observations

Time (EDT) Temp. Dew Point Humidity Pressure Visibility Wind Dir Wind Speed Gust Speed Precip Events Conditions
12:00 AM 64.9 °F 54.3 °F 68% 29.95 in - SW 6.9 mph - N/A   Unknown
1:00 AM 62.1 °F 54.5 °F 76% 29.94 in - WSW 5.8 mph - N/A   Unknown
2:00 AM 61 °F 55 °F 75% 29.95 in - WSW 5.8 mph - -  
2:00 AM 60.8 °F 55.0 °F 81% 29.95 in - WSW 5.8 mph - N/A   Unknown
3:00 AM 60.3 °F 55.4 °F 84% 29.95 in - WSW 5.8 mph - N/A   Unknown
4:00 AM 58.5 °F 55.2 °F 89% 29.96 in - WSW 4.6 mph - N/A   Unknown
5:00 AM 58.5 °F 55.4 °F 90% 29.95 in - SW 4.6 mph - N/A   Unknown
6:00 AM 58.3 °F 55.4 °F 90% 29.94 in - SW 4.6 mph - N/A   Unknown
7:00 AM 57.6 °F 54.9 °F 91% 29.93 in - SSW 3.5 mph - N/A   Unknown
8:00 AM 60.3 °F 55.4 °F 84% 29.93 in - SW 5.8 mph - N/A   Unknown
9:00 AM 64.8 °F 56.1 °F 74% 29.91 in - SW 5.8 mph - N/A   Unknown
10:00 AM 67.3 °F 56.3 °F 68% 29.91 in - SW 9.2 mph - N/A   Unknown
11:00 AM 63.9 °F 57.9 °F 81% 29.92 in - WSW 4.6 mph - N/A   Unknown
12:00 PM 65.5 °F 57.6 °F 76% 29.89 in - SSW 6.9 mph - N/A   Unknown
1:00 PM 69.3 °F 59.5 °F 71% 29.86 in - SW 10.4 mph - N/A   Unknown
2:00 PM 70 °F 59 °F 61% 29.85 in - WSW 9.2 mph - -  
2:00 PM 70.0 °F 59.4 °F 69% 29.85 in - WSW 9.2 mph - N/A   Unknown
3:00 PM 70.9 °F 60.3 °F 69% 29.84 in - SW 9.2 mph - N/A   Unknown
4:00 PM 71.2 °F 59.4 °F 66% 29.83 in - WSW 11.5 mph - N/A   Unknown
5:00 PM 69.6 °F 58.6 °F 68% 29.82 in - WSW 12.7 mph - N/A   Unknown
6:00 PM 68.4 °F 57.9 °F 69% 29.82 in - WSW 11.5 mph - N/A   Unknown
7:00 PM 67.1 °F 58.3 °F 73% 29.82 in - SW 11.5 mph - N/A   Unknown
8:00 PM 65 °F 59 °F 74% 29.82 in - SW 8.1 mph - -  
8:00 PM 65.1 °F 58.8 °F 80% 29.82 in - SW 8.1 mph - N/A   Unknown
9:00 PM 64.6 °F 55.4 °F 72% 29.83 in - SW 8.1 mph - N/A   Unknown
10:00 PM 63.9 °F 53.4 °F 69% 29.83 in - WSW 6.9 mph - N/A   Unknown
11:00 PM 63.1 °F 52.2 °F 67% 29.82 in - SW 6.9 mph - N/A   Unknown